Back to catalog

CZ-4B DEB

AliveSSO
NORAD 38314·DEBRIS·🇨🇳 China

Launched Aug 15, 2011 from Taiyuan Satellite Launch Center

Loading…

Next Passes (next 24 hours)

TLE

FreshSource: Space-Track

Epoch: Sep 12, 2026, 11:57 UTC

1 38314U 11043D   26255.49844134  .00000207  00000-0  36093-3 0  9998
2 38314  99.5350 350.0645 0263871 261.9343 159.5308 13.42390826659863

Track CZ-4B DEB in real time with AllMySat

Download on the App Store